DECAYED

BREEZE-M DEB (TANK), 42908 (Decayed)

Orbit data source: Space-Track

BREEZE-M DEB (TANK), 42908 was space debris originally from a launch on Wed, 16 Aug 2017 UTC launched from the Tyuratam Missile And Space Complex (TTMTR). Debris objects in space refer to the collection of defunct objects orbiting the Earth. Examples of debris include non-operational satellites, rocket bodies, and fragments generated from explosions, collisions, or faulty payload assembly.

Not visible in the next 10 days
Identifier
42908, 2017-046B
Orbit
Decayed
Country
Flag of CISCIS
Related business
Manufacturer
Khrunichev
Mission
Decayed spacecraft
Bus & Motor
BRIZ TANK, Unknown motor
Mass
~1,000 kg wet, 1,000 kg dry
Launch date (UTC)
2017-08-16 (9 years ago)
Launch vehicle
Unknown
Launch site
Tyuratam Missile And Space Complex (TTMTR)
Object type
Payload
Rocket body
Debris
Shape & HBR
Torus, 2.0 m
Radar Cross Section
8.218 m², Large (>1 m²)

Expand to show TLE details & history
Last TLE update: 5 months ago

TLE from 5 months ago
0 BREEZE-M DEB (TANK)
1 42908U 17046B   26112.51910884  .27750147  80072-5  37934-2 0  9992
2 42908  48.0017 147.2941 4681113  80.2846 327.8757  6.45026875 74211
Epoch: 2026-04-22T12:27Z
TLE epoch observation values (Epoch: 2026-04-22T12:27:31.003Z)
Latitude
0.00003°
Longitude
109.83557°
Altitude
2,438.281 km
Speed
7.599 km/s
True Right ascension
09h 49m 10s
True Declination
0° 00' 00"
Sunlit
Object was in daylight at epoch
Visualization orbit readout
Latitude
Unknown
Longitude
Unknown
Altitude
Unknown
Speed
Unknown
Apparent Right ascension
Unknown
Apparent Declination
Unknown
Sunlit
N/A
Visualization observer readout
Local Sidereal Time
14:19:04
Azimuth
Unknown
Elevation
Unknown
Doppler factor
Unknown
Orbital elements
Apogee altitude
11,520.002 km
Perigee altitude
106.261 km
Semi-major axis
12,191.269 km
Eccentricity
0.46811
Inclination
48.0017°
RAAN
147.2941°
Arg. of periapsis
80.2846°
True anomaly
279.80185°
Mean anomaly
327.8757°
Eccentric anomaly
306.24476°
Mean motion
1.61239 °/min
Orbital period
223.27 mins
BSTAR
0.0037934
Loading maneuver chart data...
Computing Atmospheric mass density...
Loading historical data...
Loading historical data...
Loading historical data...
Loading historical data...
Loading historical data...
Loading historical data...
Loading historical data...
Other satellites on launch #46 in the year 2017 (2017-08-16 UTC)

Documentation

Showing up to 5 results
|